Regional Weather Roundup
Issued by NWS Bismarck, ND

Home | Current Version | Previous Version | Text Only | Print | Product List | Glossary On
Versions: 1 2 3 4 5 6 7 8 9 10 11 12 13 14 15 16 17 18 19 20 21 22 23 24 25 26 27 28 29 30 31 32 33 34 35 36 37 38 39 40 41 42 43 44 45 46 47 48 49 50
000
ASUS43 KBIS 010620
RWRBIS

NWR BROADCAST TEXT
NATIONAL WEATHER SERVICE BISMARCK ND
100 AM CDT WED OCT 01 2014

NOTE: "FAIR" INDICATES FEW OR NO CLOUDS BELOW 12,000 FEET WITH NO
SIGNIFICANT WEATHER AND/OR OBSTRUCTIONS TO VISIBILITY.


CITY           SKY/WX    TMP DP  RH WIND       PRES   REMARKS
WILLISTON      LGT RAIN  52  50  93 SW6       29.49S
MINOT          CLOUDY    51  50  96 W9        29.40S FOG
MINOT AFB      DRIZZLE   51  51 100 NW10      29.39F FOG
BISMARCK       CLOUDY    53  51  93 SW13      29.49R
DICKINSON      CLOUDY    53  51  93 W17       29.51S
GARRISON         N/A     51  50  96 W9        29.43R
HETTINGER ARPT CLOUDY    53  51  93 W15       29.58R
JAMESTOWN      CLOUDY    59  53  80 S18G30    29.47R
BEACH            N/A     52  52 100 W18       29.57S
CARRINGTON     CLOUDY    55  55 100 S24G30    29.43R
CROSBY           N/A    N/A N/A N/A MISG        N/A
HARVEY         CLOUDY    55  55 100 SW21G29   29.37R
HAZEN          CLOUDY    50  50 100 W14       29.47S
LINTON         CLOUDY    55  55 100 SW14G20   29.54R
MANDAN         CLOUDY    52  50  93 SW13      29.50R
OAKES            N/A     59  55  88 S17G25    29.56S
RUGBY          CLOUDY    55  55 100 SE12      29.34F FOG
STANLEY        CLOUDY    48  48 100 W6        29.46S FOG
TIOGA          CLOUDY    48  48 100 W6        29.49F
WATFORD CITY   CLOUDY    50  50 100 W7        29.47F
$$

CITY           SKY/WX    TMP DP  RH WIND       PRES   REMARKS
GRAND FORKS    CLOUDY    59  51  75 SE23G32   29.52F
GRAND FORKS AF CLOUDY    60  56  87 S22G29    29.51F
DEVILS LAKE    CLOUDY    57  52  82 S24       29.38F
FARGO          CLOUDY    62  56  80 S23G35    29.57F
CANDO          CLOUDY    55  54  94 SE18G25   29.38F FOG
CAVALIER       CLOUDY    57  50  77 SE14G23   29.50F
GRAFTON        CLOUDY    57  50  77 SE22G31   29.51F
GWINNER        PTCLDY    63  55  77 S18       29.58S
LANGDON        CLOUDY    54  50  87 SE26G35   29.45F
ROLLA          CLOUDY    50  50 100 E18       29.40F FOG
WALHALLA         N/A     55  54  94 SE18G28   29.50F
$$

CITY           SKY/WX    TMP DP  RH WIND       PRES   REMARKS
ABERDEEN       CLEAR     60  51  72 S14G23    29.61R
MOBRIDGE       PTCLDY    58  52  80 SW12      29.57R
BUFFALO          N/A     53  50  89 W15       29.57S
RAPID CITY     MOCLDY    49  44  83 CALM      29.72R
GLASGOW        CLOUDY    54  48  80 NW18G28   29.63R
SIDNEY         CLOUDY    55  54  94 W13       29.53R
WOLF POINT     CLOUDY    55  50  83 W15       29.58R
GLENDIVE       CLOUDY    54  52  94 W21G29    29.59S
MILES CITY     LGT RAIN  56  48  74 NW20G26   29.68R
BAKER          CLOUDY    51  50  96 W16       29.62R
$$

CITY           SKY/WX    TMP DP  RH WIND       PRES   REMARKS
BILLINGS       CLOUDY    53  40  61 NW21      29.81R
GREAT FALLS    MOCLDY    43  40  89 NW8       29.91R
REGINA         LGT RAIN  50  48  93 NE3       29.49F
ESTEVAN        DRIZZLE   48  48 100 CALM      29.47F FOG
$$




USA.gov is the U.S. government's official web portal to all federal, state and local government web resources and services.